This is the latest recevied weather packets stored in our database for station/object KA1AL. If no packets are shown the sender has not sent any weather packets the latest 10 day(s).
| Time | Temp. | Humidity | Pressure | Rain* | Wind** | Luminosity | Snow |
|---|---|---|---|---|---|---|---|
| 1778029674 | 13.89° C | 99% | 1006.3 hPa | 0 mm | - | 0 W/m² | - |
| 1778029372 | 13.89° C | 99% | 1006.3 hPa | 0 mm | - | 0 W/m² | - |
| 1778029069 | 13.89° C | 99% | 1006.2 hPa | 0 mm | - | 0 W/m² | - |
| 1778028765 | 13.89° C | 99% | 1006.2 hPa | 0 mm | - | 0 W/m² | - |
| 1778028461 | 13.89° C | 99% | 1006.3 hPa | 0 mm | - | 0 W/m² | - |
| 1778028159 | 13.89° C | 99% | 1006.5 hPa | 0 mm | - | 0 W/m² | - |
| 1778027855 | 13.89° C | 99% | 1006.3 hPa | 0 mm | - | 0 W/m² | - |
| 1778027552 | 13.89° C | 99% | 1006.2 hPa | 0 mm | - | 0 W/m² | - |
| 1778027247 | 13.89° C | 99% | 1006.1 hPa | 0 mm | - | 0 W/m² | - |
| 1778026944 | 13.89° C | 99% | 1006.4 hPa | 0 mm | - | 0 W/m² | - |
| 1778026640 | 13.89° C | 99% | 1006.2 hPa | 0 mm | - | 0 W/m² | - |
| 1778026337 | 13.89° C | 99% | 1006.2 hPa | 0 mm | - | 0 W/m² | - |
| 1778026034 | 13.89° C | 99% | 1005.7 hPa | 0 mm | - | 0 W/m² | - |
| 1778025732 | 13.89° C | 99% | 1005.6 hPa | 1.78 mm | - | 0 W/m² | - |
| 1778025429 | 14.44° C | 99% | 1005.6 hPa | 1.78 mm | - | 0 W/m² | - |
| 1778025127 | 14.44° C | 99% | 1005.9 hPa | 1.27 mm | - | 0 W/m² | - |
| 1778024823 | 14.44° C | 99% | 1006.1 hPa | 1.27 mm | - | 0 W/m² | - |
| 1778024521 | 13.89° C | 99% | 1006.1 hPa | 0 mm | - | 0 W/m² | - |
| 1778024217 | 14.44° C | 99% | 1006 hPa | 0 mm | - | 1 W/m² | - |
| 1778023914 | 14.44° C | 99% | 1005.7 hPa | 0 mm | - | 0 W/m² | - |
| 1778023606 | 14.44° C | 99% | 1005.8 hPa | 0 mm | - | 2 W/m² | - |
| 1778023304 | 14.44° C | 99% | 1005.6 hPa | 0 mm | - | 3 W/m² | - |
| 1778023000 | 14.44° C | 99% | 1005.7 hPa | 3.05 mm | - | 3 W/m² | - |
| 1778022699 | 14.44° C | 99% | 1005.7 hPa | 4.83 mm | - | 2 W/m² | - |
| 1778022397 | 14.44° C | 99% | 1005.6 hPa | 3.05 mm | - | 1 W/m² | - |
* Rain latest hour (hover to see other rain measurements)
** Current wind speed in m/s (hover to see current wind gust speed)